Location: Moscow
(55.7500°N, 37.5830°E)
Time: 14:45:25
(UTC+03:00)

Vanguard 1 - Pass Details

Date: 09 December 2021
Orbit: 652 x 3830 km, 34.2° (Epoch: 25 January)

Event Time Altitude Azimuth Distance (km) Brightness Sun altitude
Exits shadow 05:41:47 18° 241° (WSW) 5,886 13.5 -24.3°
Maximum altitude 05:46:19 19° 226° (SW) 5,521 13.5 -23.6°
Drops below altitude 10° 05:56:47 10° 189° (S) 5,465 13.8 -22.2°
Sets 06:02:06 0° 173° (S) 5,937 14.3 -21.4°
